User: anonymous
Location: PACMO
(41.3967°N, 90.3760°W)
Time: 02:50:34
(UTC-05:00)
Language:

BREEZE-M DEB (TANK) - Orbit

View from above orbital plane
View from above orbital plane
View from above satellite
View from above satellite

Ground track
Ground track

The orbit data is extracted from the following two-line orbital elements,

1 31863U 07032B   14233.14137551  .00000035  00000-0  11232-3 0  2738
2 31863 045.9203 163.5885 4993504 164.7199 218.8696 05.50718882142622
Epoch (UTC): 21 August 2014 03:23:34
Eccentricity: 0.4993504
inclination: 45.9203°
perigee height: 403 km
apogee height: 13930 km
right ascension of ascending node: 163.5885°
argument of perigee: 164.7199°
revolutions per day: 5.50718882
mean anomaly at epoch: 218.8696°
orbit number at epoch: 14262

The dashed part of the orbit path shows where the satellite is in the earth's shadow,  

DLR